Time,TemperatureF,DewpointF,PressureIn,WindDirection,WindDirectionDegrees,WindSpeedMPH,WindSpeedGustMPH,Humidity,HourlyPrecipIn,Conditions,Clouds,dailyrainin,SolarRadiationWatts/m^2,SoftwareType,DateUTC
2013-09-03 00:04:00,63.0,62.0,-100.00,East,91,2.0,11.0,98,0.20,,,0.46,0.000000,,2013-09-03 04:04:00,
2013-09-03 00:14:00,63.0,62.0,-100.00,East,91,2.0,11.0,98,0.20,,,0.46,0.000000,,2013-09-03 04:14:00,
2013-09-03 00:53:00,62.0,62.0,-100.00,ESE,121,2.0,5.0,99,0.00,,,0.46,0.000000,,2013-09-03 04:53:00,
2013-09-03 01:03:00,62.0,62.0,-100.00,ESE,121,2.0,5.0,99,0.00,,,0.46,0.000000,,2013-09-03 05:03:00,
2013-09-03 01:12:00,62.0,62.0,-100.00,ESE,121,2.0,5.0,99,0.00,,,0.46,0.000000,,2013-09-03 05:12:00,
2013-09-03 01:23:00,62.0,62.0,-100.00,ESE,121,2.0,5.0,99,0.00,,,0.46,0.000000,,2013-09-03 05:23:00,
2013-09-03 01:52:00,62.0,62.0,-100.00,ESE,106,2.0,5.0,99,0.01,,,0.47,0.000000,,2013-09-03 05:52:00,
2013-09-03 02:02:00,62.0,62.0,-100.00,ESE,106,2.0,5.0,99,0.01,,,0.47,0.000000,,2013-09-03 06:02:00,
2013-09-03 02:12:00,62.0,62.0,-100.00,ESE,106,2.0,5.0,99,0.01,,,0.47,0.000000,,2013-09-03 06:12:00,
2013-09-03 02:22:00,62.0,62.0,-100.00,ESE,106,2.0,5.0,99,0.01,,,0.47,0.000000,,2013-09-03 06:22:00,
2013-09-03 02:52:00,60.0,60.0,-100.00,SE,143,1.0,4.0,99,0.00,,,0.47,0.000000,,2013-09-03 06:52:00,
2013-09-03 03:02:00,60.0,60.0,-100.00,SE,143,1.0,4.0,99,0.00,,,0.47,0.000000,,2013-09-03 07:02:00,
2013-09-03 03:12:00,60.0,60.0,-100.00,SE,143,1.0,4.0,99,0.00,,,0.47,0.000000,,2013-09-03 07:12:00,
2013-09-03 03:22:00,60.0,60.0,-100.00,SE,143,1.0,4.0,99,0.00,,,0.47,0.000000,,2013-09-03 07:22:00,
2013-09-03 03:53:00,60.0,60.0,-100.00,WSW,250,1.0,3.0,99,0.00,,,0.34,0.000000,,2013-09-03 07:53:00,
2013-09-03 04:03:00,60.0,60.0,-100.00,WSW,250,1.0,3.0,99,0.00,,,0.34,0.000000,,2013-09-03 08:03:00,
2013-09-03 04:11:00,60.0,60.0,-100.00,WSW,250,1.0,3.0,99,0.00,,,0.34,0.000000,,2013-09-03 08:11:00,
2013-09-03 04:22:00,60.0,60.0,-100.00,WSW,250,1.0,3.0,99,0.00,,,0.34,0.000000,,2013-09-03 08:22:00,
2013-09-03 04:52:00,60.0,60.0,-100.00,East,99,1.0,2.0,99,0.00,,,0.34,0.000000,,2013-09-03 08:52:00,
2013-09-03 05:02:00,60.0,60.0,-100.00,East,99,1.0,2.0,99,0.00,,,0.34,0.000000,,2013-09-03 09:02:00,
2013-09-03 05:12:00,60.0,60.0,-100.00,East,99,1.0,2.0,99,0.00,,,0.34,0.000000,,2013-09-03 09:12:00,
2013-09-03 05:22:00,60.0,60.0,-100.00,East,99,1.0,2.0,99,0.00,,,0.34,0.000000,,2013-09-03 09:22:00,
2013-09-03 05:53:00,60.0,60.0,-100.00,NW,314,0.0,2.0,100,0.00,,,0.34,0.000000,,2013-09-03 09:53:00,
2013-09-03 06:03:00,60.0,60.0,-100.00,NW,314,0.0,2.0,100,0.00,,,0.34,0.000000,,2013-09-03 10:03:00,
2013-09-03 06:13:00,60.0,60.0,-100.00,NW,314,0.0,2.0,100,0.00,,,0.34,0.000000,,2013-09-03 10:13:00,
2013-09-03 06:23:00,60.0,60.0,-100.00,NW,314,0.0,2.0,100,0.00,,,0.34,0.000000,,2013-09-03 10:23:00,
2013-09-03 06:53:00,59.0,59.0,-100.00,ENE,58,0.0,3.0,100,0.00,,,0.34,1.000000,,2013-09-03 10:53:00,
2013-09-03 07:03:00,59.0,59.0,-100.00,ENE,58,0.0,3.0,100,0.00,,,0.34,1.000000,,2013-09-03 11:03:00,
2013-09-03 07:12:00,59.0,59.0,-100.00,ENE,58,0.0,3.0,100,0.00,,,0.34,1.000000,,2013-09-03 11:12:00,
2013-09-03 07:23:00,59.0,59.0,-100.00,ENE,58,0.0,3.0,100,0.00,,,0.34,1.000000,,2013-09-03 11:23:00,
2013-09-03 07:52:00,61.0,61.0,-100.00,WNW,285,1.0,3.0,100,0.00,,,0.29,31.000000,,2013-09-03 11:52:00,
2013-09-03 08:02:00,61.0,61.0,-100.00,WNW,285,1.0,3.0,100,0.00,,,0.29,31.000000,,2013-09-03 12:02:00,
2013-09-03 08:12:00,61.0,61.0,-100.00,WNW,285,1.0,3.0,100,0.00,,,0.29,31.000000,,2013-09-03 12:12:00,
2013-09-03 08:22:00,61.0,61.0,-100.00,WNW,285,1.0,3.0,100,0.00,,,0.29,31.000000,,2013-09-03 12:22:00,
2013-09-03 08:52:00,62.0,62.0,-100.00,WNW,303,1.0,4.0,99,0.00,,,0.24,92.000000,,2013-09-03 12:52:00,
2013-09-03 09:02:00,62.0,62.0,-100.00,WNW,303,1.0,4.0,99,0.00,,,0.24,92.000000,,2013-09-03 13:02:00,
2013-09-03 09:11:00,62.0,62.0,-100.00,WNW,303,1.0,4.0,99,0.00,,,0.24,92.000000,,2013-09-03 13:11:00,
2013-09-03 09:22:00,62.0,62.0,-100.00,WNW,303,1.0,4.0,99,0.00,,,0.24,92.000000,,2013-09-03 13:22:00,
2013-09-03 09:52:00,62.0,62.0,-100.00,ESE,114,1.0,4.0,99,0.00,,,0.24,45.000000,,2013-09-03 13:52:00,
2013-09-03 10:02:00,62.0,62.0,-100.00,ESE,114,1.0,4.0,99,0.00,,,0.24,45.000000,,2013-09-03 14:02:00,
2013-09-03 10:11:00,62.0,62.0,-100.00,ESE,114,1.0,4.0,99,0.00,,,0.24,45.000000,,2013-09-03 14:11:00,
2013-09-03 10:21:00,62.0,62.0,-100.00,ESE,114,1.0,4.0,99,0.00,,,0.24,45.000000,,2013-09-03 14:21:00,
2013-09-03 10:52:00,62.0,61.0,-100.00,NNW,330,2.0,5.0,96,0.00,,,0.24,83.000000,,2013-09-03 14:52:00,
2013-09-03 11:02:00,62.0,61.0,-100.00,NNW,330,2.0,5.0,96,0.00,,,0.24,83.000000,,2013-09-03 15:02:00,
2013-09-03 11:22:00,62.0,61.0,-100.00,NNW,330,2.0,5.0,96,0.00,,,0.24,83.000000,,2013-09-03 15:22:00,
2013-09-03 11:54:00,62.0,61.0,-100.00,SSW,196,0.0,3.0,95,0.00,,,0.24,75.000000,,2013-09-03 15:54:00,
2013-09-03 12:04:00,62.0,61.0,-100.00,SSW,196,0.0,3.0,95,0.00,,,0.24,75.000000,,2013-09-03 16:04:00,
2013-09-03 12:14:00,62.0,61.0,-100.00,SSW,196,0.0,3.0,95,0.00,,,0.24,75.000000,,2013-09-03 16:14:00,
2013-09-03 12:24:00,62.0,61.0,-100.00,SSW,196,0.0,3.0,95,0.00,,,0.24,75.000000,,2013-09-03 16:24:00,
2013-09-03 12:54:00,68.0,63.0,-100.00,West,278,3.0,6.0,83,0.00,,,0.24,270.000000,,2013-09-03 16:54:00,
2013-09-03 13:03:00,68.0,63.0,-100.00,West,278,3.0,6.0,83,0.00,,,0.24,270.000000,,2013-09-03 17:03:00,
2013-09-03 13:13:00,68.0,63.0,-100.00,West,278,3.0,6.0,83,0.00,,,0.24,270.000000,,2013-09-03 17:13:00,
2013-09-03 13:23:00,68.0,63.0,-100.00,West,278,3.0,6.0,83,0.00,,,0.24,270.000000,,2013-09-03 17:23:00,
2013-09-03 13:52:00,69.0,61.0,-100.00,WNW,299,3.0,6.0,77,0.00,,,0.24,441.000000,,2013-09-03 17:52:00,
2013-09-03 14:02:00,69.0,61.0,-100.00,WNW,299,3.0,6.0,77,0.00,,,0.24,441.000000,,2013-09-03 18:02:00,
2013-09-03 14:12:00,69.0,61.0,-100.00,WNW,299,3.0,6.0,77,0.00,,,0.24,441.000000,,2013-09-03 18:12:00,
2013-09-03 14:22:00,69.0,61.0,-100.00,WNW,299,3.0,6.0,77,0.00,,,0.24,441.000000,,2013-09-03 18:22:00,
2013-09-03 14:52:00,69.0,60.0,-100.00,West,281,3.0,7.0,73,0.00,,,0.24,220.000000,,2013-09-03 18:52:00,
2013-09-03 15:02:00,69.0,60.0,-100.00,West,281,3.0,7.0,73,0.00,,,0.24,220.000000,,2013-09-03 19:02:00,
2013-09-03 15:11:00,69.0,60.0,-100.00,West,281,3.0,7.0,73,0.00,,,0.24,220.000000,,2013-09-03 19:11:00,
2013-09-03 15:22:00,69.0,60.0,-100.00,West,281,3.0,7.0,73,0.00,,,0.24,220.000000,,2013-09-03 19:22:00,
2013-09-03 15:52:00,68.0,62.0,-100.00,NW,307,1.0,6.0,80,0.00,,,0.24,128.000000,,2013-09-03 19:52:00,
2013-09-03 16:02:00,68.0,62.0,-100.00,NW,307,1.0,6.0,80,0.00,,,0.24,128.000000,,2013-09-03 20:02:00,
2013-09-03 16:11:00,68.0,62.0,-100.00,NW,307,1.0,6.0,80,0.00,,,0.24,128.000000,,2013-09-03 20:11:00,
2013-09-03 16:22:00,68.0,62.0,-100.00,NW,307,1.0,6.0,80,0.00,,,0.24,128.000000,,2013-09-03 20:22:00,
2013-09-03 16:53:00,70.0,61.0,-100.00,WSW,251,2.0,5.0,74,0.00,,,0.24,198.000000,,2013-09-03 20:53:00,
2013-09-03 17:02:00,70.0,61.0,-100.00,WSW,251,2.0,5.0,74,0.00,,,0.24,198.000000,,2013-09-03 21:02:00,
2013-09-03 17:12:00,70.0,61.0,-100.00,WSW,251,2.0,5.0,74,0.00,,,0.24,198.000000,,2013-09-03 21:12:00,
2013-09-03 17:22:00,70.0,61.0,-100.00,WSW,251,2.0,5.0,74,0.00,,,0.24,198.000000,,2013-09-03 21:22:00,
2013-09-03 17:54:00,69.0,61.0,-100.00,WSW,243,1.0,5.0,77,0.00,,,0.24,188.000000,,2013-09-03 21:54:00,
2013-09-03 18:04:00,69.0,61.0,-100.00,WSW,243,1.0,5.0,77,0.00,,,0.24,188.000000,,2013-09-03 22:04:00,
2013-09-03 18:13:00,69.0,61.0,-100.00,WSW,243,1.0,5.0,77,0.00,,,0.24,188.000000,,2013-09-03 22:13:00,
2013-09-03 18:23:00,69.0,61.0,-100.00,WSW,243,1.0,5.0,77,0.00,,,0.24,188.000000,,2013-09-03 22:23:00,
2013-09-03 18:53:00,65.0,63.0,-100.00,ESE,115,2.0,5.0,92,0.00,,,0.24,153.000000,,2013-09-03 22:53:00,
2013-09-03 19:04:00,65.0,63.0,-100.00,ESE,115,2.0,5.0,92,0.00,,,0.24,153.000000,,2013-09-03 23:04:00,
2013-09-03 19:12:00,65.0,63.0,-100.00,ESE,115,2.0,5.0,92,0.00,,,0.24,153.000000,,2013-09-03 23:12:00,
2013-09-03 19:23:00,65.0,63.0,-100.00,ESE,115,2.0,5.0,92,0.00,,,0.24,153.000000,,2013-09-03 23:23:00,
2013-09-03 19:54:00,61.0,60.0,-100.00,West,277,2.0,18.0,98,0.12,,,0.36,2.000000,,2013-09-03 23:54:00,
2013-09-03 20:02:00,61.0,60.0,-100.00,West,277,2.0,18.0,98,0.12,,,0.36,2.000000,,2013-09-04 00:02:00,
2013-09-03 20:12:00,61.0,60.0,-100.00,West,277,2.0,18.0,98,0.12,,,0.36,2.000000,,2013-09-04 00:12:00,
2013-09-03 20:22:00,61.0,60.0,-100.00,West,277,2.0,18.0,98,0.12,,,0.36,2.000000,,2013-09-04 00:22:00,
2013-09-03 20:52:00,60.0,60.0,-100.00,SE,124,0.0,3.0,99,0.02,,,0.36,0.000000,,2013-09-04 00:52:00,
2013-09-03 21:02:00,60.0,60.0,-100.00,SE,124,0.0,3.0,99,0.02,,,0.36,0.000000,,2013-09-04 01:02:00,
2013-09-03 21:12:00,60.0,60.0,-100.00,SE,124,0.0,3.0,99,0.02,,,0.36,0.000000,,2013-09-04 01:12:00,
2013-09-03 21:22:00,60.0,60.0,-100.00,SE,124,0.0,3.0,99,0.02,,,0.36,0.000000,,2013-09-04 01:22:00,
2013-09-03 21:53:00,60.0,59.0,-100.00,South,174,1.0,4.0,98,0.00,,,0.36,0.000000,,2013-09-04 01:53:00,
2013-09-03 22:02:00,60.0,59.0,-100.00,South,174,1.0,4.0,98,0.00,,,0.36,0.000000,,2013-09-04 02:02:00,
2013-09-03 22:11:00,60.0,59.0,-100.00,South,174,1.0,4.0,98,0.00,,,0.36,0.000000,,2013-09-04 02:11:00,
2013-09-03 22:22:00,60.0,59.0,-100.00,South,174,1.0,4.0,98,0.00,,,0.36,0.000000,,2013-09-04 02:22:00,
2013-09-03 22:52:00,60.0,60.0,-100.00,ESE,118,1.0,3.0,99,0.00,,,0.35,0.000000,,2013-09-04 02:52:00,
2013-09-03 23:03:00,60.0,60.0,-100.00,ESE,118,1.0,3.0,99,0.00,,,0.35,0.000000,,2013-09-04 03:03:00,
2013-09-03 23:12:00,60.0,60.0,-100.00,ESE,118,1.0,3.0,99,0.00,,,0.35,0.000000,,2013-09-04 03:12:00,
2013-09-03 23:22:00,60.0,60.0,-100.00,ESE,118,1.0,3.0,99,0.00,,,0.35,0.000000,,2013-09-04 03:22:00,
2013-09-03 23:55:00,59.0,59.0,-100.00,SSW,201,1.0,3.0,99,0.00,,,0.15,0.000000,,2013-09-04 03:55:00,